Regional Weather Roundup
Issued by NWS San Diego, CA

Current Version | Previous Version | Text Only | Print | Product List | Glossary On
Versions: 1 2 3 4 5 6 7 8 9 10 11 12 13 14 15 16 17 18 19 20 21 22 23 24 25 26 27 28 29 30 31 32 33 34 35 36 37 38 39 40 41 42 43 44 45 46 47 48 49 50
000
ASUS46 KSGX 230011
RWRSGX

SAN DIEGO HOURLY WEATHER ROUNDUP
NATIONAL WEATHER SERVICE SAN DIEGO CA
500 PM PDT FRI MAY 22 2015

NOTE: "FAIR" INDICATES FEW OR NO CLOUDS BELOW 12,000 FEET WITH NO
SIGNIFICANT WEATHER AND/OR OBSTRUCTIONS TO VISIBILITY.

CAZ042-043-060-061-PZZ750-775-230100-

GREATER SAN DIEGO AREA

CITY           SKY/WX    TMP DP  RH WIND       PRES   REMARKS
LINDBERGH FLD  PTSUNNY   66  51  58 W10       30.06R
POINT LOMA       N/A     68  53  58 W8          N/A
NATIONAL CITY    N/A     68  56  65 N6        30.05S
CHULA VISTA      N/A     65  56  73 W3        29.98R
IMPERIAL BEACH PTSUNNY   66  53  63 W12       30.05S
BROWN FIELD    PTSUNNY   63  51  65 W10       30.04R
MIRAMAR MCAS   PTSUNNY   66  51  58 W13       30.04S
MONTGOMERY FLD PTSUNNY   63  52  67 W12       30.04S

$$

NORTH SAN DIEGO COUNTY

CITY           SKY/WX    TMP DP  RH WIND       PRES   REMARKS
CAMP PENDLETON SUNNY     66  48  52 W10       30.03R
OCEANSIDE AP   SUNNY     67  51  56 W8G17     30.03R
OCEANSIDE HBR    N/A     64  55  73 W14       30.06S
VISTA            N/A     65  52  62 W13       30.01S
CARLSBAD       MOSUNNY   64  51  62 SW14      30.03R
DEL MAR          N/A     68  55  63 NW3       30.06S
LA JOLLA SCRIP   N/A    N/A N/A N/A SW6       30.03R
FALLBROOK        N/A     65  51  59 W5        30.02R
ESCONDIDO        N/A     66  51  57 W9        30.04R
SAN MARCOS       N/A     65  52  62 NW18      30.02R
POWAY            N/A     65  51  61 S6        30.05R

$$

EAST SAN DIEGO COUNTY

CITY           SKY/WX    TMP DP  RH WIND       PRES   REMARKS
RAMONA         MOSUNNY   62  46  55 W15       30.03R
SANTEE LAKES     N/A     63  52  69 W5        30.04R
LA MESA          N/A     62  53  72 NW12      29.98R
JAMUL            N/A     62  50  63 CALM      30.03R
DESCANSO N       N/A     50  46  87 SW3       29.95S
MT. LAGUNA OBS   N/A     37  37 100 SW26      29.60  WCI  25
CAMPO            N/A     54  45  71 SW14G23   30.00R

$$

ORANGE COUNTY AND THE LOS ANGELES BASIN

CITY           SKY/WX    TMP DP  RH WIND       PRES   REMARKS
JOHN WAYNE AP  PTSUNNY   65  49  56 W9        30.02S
LAKE FOREST FR   N/A     61  48  62 W3        29.93S
SANTA ANA        N/A     68  54  61 CALM      29.97S
HUNTINGTON BCH   N/A     65  56  73 W8        30.04R
LOS ALAMITOS   PTSUNNY   63  53  71 SW13      30.02R
FULLERTON      CLOUDY    66  50  56 SW9       30.00S
LONG BEACH     CLOUDY    65  51  60 S8        30.01S
L.A. AP        PTSUNNY   63  54  72 SW15      30.02S
L.A. DOWNTOWN  CLOUDY    66  50  56 VRB5      30.01R

$$

THE INLAND EMPIRE

CITY           SKY/WX    TMP DP  RH WIND       PRES   REMARKS
CORONA         CLOUDY    63  48  57 VRB7      30.02S
CHINO          CLOUDY    64  49  57 W9        30.03S
ONTARIO        CLOUDY    60  48  64 W8        30.02R
SAN BERNARDINO CLOUDY    57  48  72 CALM      30.03R
RIVERSIDE AP   CLOUDY    62  48  60 W7        30.02S
RIV CYN CREST    N/A     59  57  93 NE5         N/A
MORENO VALLEY    N/A     56  54  94 CALM      30.02R
MARCH ARB      CLOUDY    58  48  69 NW5       30.03R
HORSETHIEF CYN   N/A     59  46  62 SW8       29.99S
PERRIS           N/A     57  51  81 E3          N/A
MENIFEE          N/A     61  51  70 NW3       30.09S
HEMET EAST       N/A     54  48  80 CALM      30.02R
FRENCH VALLEY  CLOUDY    59  46  63 SW8       30.03R
TEMECULA         N/A     61  50  66 SW8       29.97F

$$

SAN BERNARDINO AND RIVERSIDE COUNTY MOUNTAINS

CITY           SKY/WX    TMP DP  RH WIND       PRES   REMARKS
BIG BEAR AP    CLOUDY    41  34  75 CALM      30.03S
ANGELUS OAKS     N/A     40  37  90 CALM      29.99R
PINE COVE        N/A     38  38  99 CALM      30.07S

$$

SOUTHERN DESERT INCLUDING THE COACHELLA VALLEY

CITY           SKY/WX    TMP DP  RH WIND       PRES   REMARKS
PALM SPRINGS   MOSUNNY   76  42  29 NW15G26   29.88R
THOUSAND PALMS   N/A     73  46  38 NW14      29.87R
PALM DESERT      N/A     80  44  27 NW1       32.09S
THERMAL        SUNNY     78  41  26 W15G23    29.84R
BLYTHE         MOSUNNY   80  40  23 SW21      29.83R
IMPERIAL AP    SUNNY     76  43  30 W23G33    29.88S
EL CENTRO NAS  MOSUNNY   76  41  28 W29G37    29.92R
YUMA AZ        SUNNY     79  39  23 W17G24    29.88S
MEXICALI       MOSUNNY   77  37  24 W15       29.89S

$$

UPPER DESERT

CITY           SKY/WX    TMP DP  RH WIND       PRES   REMARKS
VICTORVILLE AP PTSUNNY   64  39  39 W16G25    29.95R
HESPERIA         N/A     57  44  62 W12       30.09R
APPLE VALLEY     N/A     59  42  53 SW12G26   30.01R
PALMDALE       SUNNY     62  44  51 SW25G33   29.97R
LANCASTER      MOSUNNY   63  43  48 SW22G35   29.96R
EDWARDS AFB    PTSUNNY   66  41  40 W29G36    29.89S
DAGGETT        MOSUNNY   71  40  32 SW28G39   29.86S
29 PALMS N     PTSUNNY   73  35  25 NW18G28   29.93R
NEEDLES        CLOUDY    76  36  23 W10       29.84S

$$

REGIONAL REPORTS

CITY           SKY/WX    TMP DP  RH WIND       PRES   REMARKS
SANTA BARBARA  MOSUNNY   65  54  67 W21G30    29.96S
SANDBERG       CLOUDY    53  43  68 S8        30.03R
LAS VEGAS NV   PTSUNNY   71  39  31 S21G35    29.80R
PHOENIX AZ     MOSUNNY   78  36  21 W14G28    29.84S
TIJUANA        PTSUNNY   64  46  52 W13       30.06S
ENSENADA NW      N/A     65  32  29 W3        30.04R

$$

OFFSHORE ISLANDS

CITY           SKY/WX    TMP DP  RH WIND       PRES   REMARKS
CATALINA ARPT  CLOUDY    56  50  80 W16       30.04S
SAN NICOLAS IS MOSUNNY  N/A N/A N/A W21       30.03S

$$

MARINE AND OFFSHORE BUOY REPORTS

STATION/POSITION SKY/WX   TEMP    WIND        PRES    SWELL
                          AIR SEA DIR/SP/G            HT/PER/DIR
                          (F)     (DEG/KT/KT) (MB)    (FT/S/D)
TANNER BANKS               62 63  290/ 14/ 17 1017.6F   3/300/12
S CLEMENTE BASIN           61 63  280/ 12/ 14 1017.4F   2/250/13
SAN NICOLAS IS.               59                N/A     3/300/12
SO. S. ROSA ISLA           60 60  290/ 16/ 17 1016.3F   2/11
W. S. BARBARA CH           59 58  300/ 14/ 17 1016.3R   3/300/11
M. S. BARBARA CH           59 58  260/ 21/ 25 1015.6F
S. MONICA BASIN            61 63  270/ 14/ 17 1016.6R   2/260/12
S PEDRO CHANNEL               63                N/A     2/250/13
DANA POINT                    65                N/A     2/210/13
OCEANSIDE OFFSHR              65                N/A     2/260/13
TORREY PINES OTR              64                N/A     2/250/13
LA JOLLA 1                 62 65  260/  6/  9 1017.2F
MISSION BAY BUOY              64                N/A     2/260/13
SAN DIEGO BAY                 69              1017.7F
POINT LOMA SOUTH              65                N/A     2/200/15

$$



USA.gov is the U.S. government's official web portal to all federal, state and local government web resources and services.